Regional Weather Roundup
Issued by NWS Little Rock, AR

Home | Current Version | Previous Version | Graphics & Text | Print | Product List | Glossary On
Versions: 1 2 3 4 5 6 7 8 9 10 11 12 13 14 15 16 17 18 19 20 21 22 23 24 25 26 27 28 29 30 31 32 33 34 35 36 37 38 39 40 41 42 43 44 45 46 47 48 49 50
000
ASUS44 KLZK 300605
RWRLZK

WEATHER ROUNDUP FOR ARKANSAS
NATIONAL WEATHER SERVICE LITTLE ROCK AR
100 AM CDT TUE MAY 30 2017

NOTE: "FAIR" INDICATES FEW OR NO CLOUDS BELOW 12,000 FEET WITH NO
SIGNIFICANT WEATHER AND/OR OBSTRUCTIONS TO VISIBILITY.

ARZ001-003-010-029-300700-
NORTHWEST ARKANSAS

CITY           SKY/WX    TMP DP  RH WIND       PRES   REMARKS
FAYETTEVILLE   CLEAR     61  59  93 S5        30.08R
6HR MIN TEMP:  61; 6HR MAX TEMP:  79;

FORT SMITH     CLEAR     70  57  63 VRB3      30.05R
6HR MIN TEMP:  69; 6HR MAX TEMP:  86;

HARRISON       CLEAR     67  55  65 CALM      30.07R
6HR MIN TEMP:  65; 6HR MAX TEMP:  79;

BENTONVILLE    CLEAR     64  57  77 CALM      30.08R
6HR MIN TEMP:  64; 6HR MAX TEMP:  81;

ROGERS         CLEAR     67  57  70 SW5       30.08R
6HR MIN TEMP:  67; 6HR MAX TEMP:  79; 6HR PCP:  0.01;

SILOAM SPGS    CLEAR     66  54  63 CALM      30.07R
6HR MIN TEMP:  66; 6HR MAX TEMP:  81;

HIGHFILL       MOCLDY    67  58  72 W6        30.08R
6HR MIN TEMP:  66; 6HR MAX TEMP:  81;

$$

ARZ004-005-016-300700-
NORTH CENTRAL ARKANSAS

CITY           SKY/WX    TMP DP  RH WIND       PRES   REMARKS
BATESVILLE     CLEAR     68  57  68 W3        30.04S
6HR MIN TEMP:  68; 6HR MAX TEMP:  82;

FLIPPIN        MOCLDY    70  55  60 CALM      30.02R
6HR MIN TEMP:  66; 6HR MAX TEMP:  82;

MTN HOME       PTCLDY    67  58  72 CALM      30.04R
6HR MIN TEMP:  65; 6HR MAX TEMP:  80;

$$

ARZ040-041-300700-
WEST CENTRAL ARKANSAS

CITY           SKY/WX    TMP DP  RH WIND       PRES   REMARKS
MENA           CLEAR     61  59  94 CALM      30.09S
MOUNT IDA      CLEAR     62  61  96 CALM      30.05R
6HR MIN TEMP:  62; 6HR MAX TEMP:  78;

$$

ARZ009-017-025-026-028-300700-
NORTHEAST ARKANSAS

CITY           SKY/WX    TMP DP  RH WIND       PRES   REMARKS
CORNING          N/A     68  66  94 SW7       30.01S
JONESBORO      CLEAR     70  62  76 SW3       30.02S
6HR MIN TEMP:  69; 6HR MAX TEMP:  83;

NEWPORT        CLEAR     68  65  90 SW8       30.03S
6HR MIN TEMP:  68; 6HR MAX TEMP:  82;

WALNUT RIDGE   CLEAR     70  63  78 SW6       30.01S
6HR MIN TEMP:  70; 6HR MAX TEMP:  82;

BLYTHEVILLE    CLEAR     69  64  84 SW7       30.02S
6HR MIN TEMP:  69; 6HR MAX TEMP:  82;

$$

ARZ022-023-033-042-044-300700-
CENTRAL ARKANSAS

CITY           SKY/WX    TMP DP  RH WIND       PRES   REMARKS
LITTLE ROCK    CLEAR     65  64  97 SW5       30.04S
6HR MIN TEMP:  65; 6HR MAX TEMP:  82;

N LITTLE ROCK    N/A     69  61  76 CALM      30.04S
6HR MIN TEMP:  69; 6HR MAX TEMP:  82;

JACKSONVILLE   CLEAR     64  64  99 CALM      30.04R
6HR MIN TEMP:  64; 6HR MAX TEMP:  83;

CONWAY           N/A     68  64  88 MISG      30.03S
SEARCY         CLEAR     64  64 100 W3        30.06R
6HR MIN TEMP:  64; 6HR MAX TEMP:  82;

HOT SPRINGS    CLEAR     65  63  93 NW3       30.07R
6HR MIN TEMP:  64; 6HR MAX TEMP:  83;

RUSSELLVILLE   CLEAR     64  61  90 CALM      30.04R
6HR MIN TEMP:  64; 6HR MAX TEMP:  83;

CLINTON        FAIR      61  61 100 CALM      30.06S
$$

ARZ036-300700-
EAST ARKANSAS

CITY           SKY/WX    TMP DP  RH WIND       PRES   REMARKS
WEST MEMPHIS   CLEAR     69  68  96 SW3       30.03R
6HR MIN TEMP:  68; 6HR MAX TEMP:  79;

$$

ARZ050-053-066-070-073-300700-
SOUTHWEST ARKANSAS

CITY           SKY/WX    TMP DP  RH WIND       PRES   REMARKS
ARKADELPHIA    FAIR      65  64  97 CALM      30.06R
6HR MIN TEMP:  65; 6HR MAX TEMP:  83;

CAMDEN         FOG       66  64  94 CALM      30.06S VSB 1/2
TEXARKANA      CLEAR     68  68 100 S6        30.06S
6HR MIN TEMP:  65; 6HR MAX TEMP:  82;

EL DORADO      CLEAR     66  65  96 CALM      30.06S
6HR MIN TEMP:  66; 6HR MAX TEMP:  79;

DE QUEEN       CLEAR     62  62 100 CALM      30.05S
6HR MIN TEMP:  62; 6HR MAX TEMP:  82;

$$

ARZ056-057-069-300700-
SOUTHEAST ARKANSAS

CITY           SKY/WX    TMP DP  RH WIND       PRES   REMARKS
PINE BLUFF     HVY RAIN  68  66  93 SW3       30.05S
6HR MIN TEMP:  67; 6HR MAX TEMP:  83;

STUTTGART      CLEAR     72  55  56 S6        30.05S
6HR MIN TEMP:  70; 6HR MAX TEMP:  82;

MONTICELLO     CLEAR     66  65  96 CALM      30.05S
6HR MIN TEMP:  66; 6HR MAX TEMP:  79;


$$





USA.gov is the U.S. government's official web portal to all federal, state and local government web resources and services.